Location: Fort Wayne
(41.1310°N, 85.1290°W)
Time: 00:59:08
(UTC-05:00)

Daily predictions for brighter satellites

Satellite Brightness Start Highest point End
(mag) Time Altitude Azimuth Time Altitude Azimuth Time Altitude Azimuth
ATLAS CENTAUR R/B 4.4 03:42:28 43° ESE 03:42:28 43° ESE 03:52:05 10° SE
Cosmos 2369 Rocket 3.9 04:26:32 22° N 04:26:32 22° N 04:28:46 10° N
Meteor 2-10 Rocket 4.3 04:31:12 46° E 04:31:12 46° E 04:36:00 10° NNE
Cosmos 1452 Rocket 4.1 04:33:11 55° ENE 04:33:11 55° ENE 04:37:37 10° NNE
ERS-2 4.4 04:44:24 10° NNE 04:45:50 22° NNE 04:45:50 22° NNE
ATLAS 5 CENTAUR R/B 3.4 04:51:29 25° N 04:51:29 25° N 04:54:24 10° NNE
Cosmos 1140 Rocket 3.8 04:46:58 10° NNW 04:52:11 65° ENE 04:57:22 10° SSE
Cosmos 1943 Rocket 3.1 04:56:40 35° NNW 04:56:40 35° NNW 05:00:25 10° NNE
IRS-P2 Rocket 4.4 04:53:46 10° NNE 04:59:10 81° WNW 04:59:13 81° W
IRAS Rocket 4.3 04:54:43 10° N 04:59:33 59° NW 04:59:33 59° NW
CZ-4C R/B 1.9 05:00:42 78° W 05:00:55 80° NW 05:06:54 10° NNE
ADEOS II 2.0 04:57:08 10° N 05:02:06 70° NW 05:02:06 70° NW
Lacrosse 5 3.0 05:04:44 31° NNW 05:04:44 31° NNW 05:08:40 10° NNE
Okean O Rocket 3.6 05:02:44 10° N 05:03:58 18° N 05:03:58 18° N
Cosmos 1553 Rocket 4.3 05:01:33 10° S 05:07:41 68° E 05:13:56 10° NNE
Okean 1-7 2.8 05:14:32 82° S 05:14:43 89° ESE 05:19:00 10° N
CZ-4B R/B 3.4 05:12:55 10° N 05:18:21 51° WNW 05:18:49 49° W
Cosmos 2221 Rocket 3.6 05:24:45 60° W 05:24:52 60° W 05:29:23 10° N
Meteor 1-20 Rocket 4.2 05:26:57 10° N 05:32:40 87° E 05:38:14 10° S
Cosmos 1850 Rocket 3.9 05:28:45 10° NNW 05:34:06 85° WSW 05:39:24 10° SSE
Cosmos 1954 Rocket 4.5 05:38:12 37° W 05:38:16 37° WSW 05:43:07 10° SSW
Cosmos 1606 3.0 05:38:23 10° S 05:42:14 70° E 05:46:08 10° NNE
SJ-6F 4.3 05:38:09 10° NNE 05:42:18 90° N 05:46:24 10° SSW
Lacrosse 5 rocket 2.1 05:40:15 20° NNW 05:42:23 41° NE 05:45:48 10° ESE
Cosmos 1782 Rocket 4.5 05:38:21 10° NNW 05:45:27 17° SSW 05:46:35 10° SSW
SL-12 R/B (Aux Motor) 4.0 05:42:46 57° WNW 05:43:17 81° SSW 05:45:28 10° ESE
USA 234 3.2 05:37:04 10° NE 05:43:37 83° NW 05:48:27 20° SW
Cosmos 1932 4.4 05:38:26 15° SSW 05:43:46 85° WNW 05:50:18 10° NNE
USA 238 DEB 4.4 05:38:55 10° SSW 05:45:42 56° ESE 05:52:31 10° NE
USA 238 4.4 05:39:01 10° SSW 05:45:48 55° ESE 05:52:37 10° NE
Cosmos 1420 Rocket 4.2 05:43:53 30° WSW 05:46:04 47° WNW 05:51:05 10° N
Abrixas 4.4 05:45:42 19° N 05:46:16 20° N 05:48:32 10° ENE
Cosmos 2297 Rocket 3.4 05:45:43 10° N 05:51:05 42° ENE 05:56:25 10° SE
GEOS 3 Rocket 3.8 05:48:20 10° SSE 05:53:11 46° WSW 05:57:12 15° NW
Cosmos 1656 Rocket 4.4 05:51:34 27° W 05:53:27 33° WNW 05:58:33 10° N
CZ-4B R/B 4.2 05:50:22 10° N 05:54:15 46° WNW 05:57:34 14° SW
Cosmos 1386 Rocket 4.4 05:49:49 10° N 05:55:54 82° W 06:02:04 10° S
SKYMED 2 3.6 05:52:03 10° SSE 05:56:23 86° ENE 06:00:44 10° NNW
Cosmos 1745 Rocket 3.9 05:52:08 10° NNW 05:58:09 59° W 06:04:09 10° S
NOAA 6 3.9 05:53:35 10° N 05:58:45 76° WNW 06:03:52 10° SSW
Cosmos 1782 2.9 05:55:50 10° SSW 05:59:41 52° W 06:03:36 10° N
Cosmos 1331 Rocket 4.5 05:57:07 10° S 06:02:13 63° ESE 06:07:23 10° NNE
Cosmos 2278 4.1 05:57:07 10° S 06:02:41 65° ESE 06:08:17 10° NNE
ATLAS 3B R/B 2.9 05:55:53 10° SW 06:03:29 78° NW 06:10:48 10° NNE
Cosmos 1633 2.9 06:00:31 10° N 06:04:07 67° E 06:07:42 10° SSE
Cosmos 1674 Rocket 3.8 06:00:45 10° S 06:05:08 76° E 06:09:36 10° N
Meteor 2-6 Rocket 4.0 06:02:35 10° SSW 06:07:56 72° W 06:13:23 10° N
Okean-O 3.3 06:04:34 10° N 06:08:31 32° WNW 06:12:14 11° SW
Cosmos 2219 3.8 06:05:27 10° NW 06:10:25 32° WSW 06:15:20 10° SSW
Cosmos 2227 Rocket 2.3 06:06:07 10° NNW 06:11:50 80° ENE 06:17:30 10° SSE
Tiangong 1 1.0 06:12:02 25° WNW 06:13:32 64° N 06:16:27 10° E
CZ-2C R/B 4.4 06:11:02 10° NNE 06:15:33 34° E 06:20:09 10° SSE
Meteor 1-31 Rocket 3.9 06:12:28 10° NNW 06:15:34 23° WNW 06:17:23 17° WSW
Okean 2 Rocket 4.2 06:13:30 10° NW 06:16:54 22° W 06:20:17 10° SW
Thor Agena Rocket 4.1 06:13:16 10° SSW 06:17:57 33° W 06:22:36 10° NNW
Cosmos 1110 Rocket 3.9 06:13:00 10° SSW 06:18:09 81° WNW 06:23:22 10° NNE
Cosmos 1607 4.0 06:14:05 10° SW 06:20:04 56° NW 06:26:10 10° NNE
Delta 2 Rocket 4.5 06:16:35 15° WSW 06:20:10 44° S 06:25:11 10° ESE
ERS-2 4.3 06:20:07 10° NW 06:20:38 11° NW 06:20:38 11° NW
Okean 1 Rocket 3.2 06:23:45 10° N 06:28:10 80° E 06:32:31 10° S
Cosmos 1174 4.0 06:32:01 10° SSW 06:34:58 54° ESE 06:38:22 10° NE
Cosmos 2151 Rocket 4.4 06:33:14 10° NNW 06:37:07 29° W 06:40:56 10° SSW
Cosmos 1302 Rocket 4.2 06:33:29 10° SSW 06:38:46 78° ESE 06:44:03 10° NNE
Cosmos 1697 Rocket 3.4 06:35:11 10° S 06:40:42 59° ESE 06:46:18 10° NNE
COSMO-SKYMED 1 3.5 06:40:52 10° SSW 06:44:35 27° W 06:48:19 10° NW
Cosmos 1980 Rocket 3.9 06:42:18 10° S 06:47:27 39° ESE 06:52:38 10° NE
Lacrosse 5 3.9 06:45:47 10° NW 06:48:30 14° N 06:51:13 10° NNE
Cosmos 2084 4.5 06:44:52 10° SSW 06:48:37 44° ESE 06:52:17 10° NE
Meteor 1-11 Rocket 4.0 06:43:05 10° NNW 06:48:50 52° W 06:54:27 10° SSW
SMAP 4.0 06:44:46 10° NNE 06:49:21 55° E 06:53:54 10° S
Meteor 1-28 Rocket 4.1 06:46:46 10° SSW 06:49:59 27° W 06:53:14 10° NW
CZ-4C R/B 3.9 06:46:41 10° WNW 06:50:34 18° NNW 06:54:47 10° NNE
Orbus 7S? 4.2 06:47:14 10° SW 06:56:10 80° NW 07:00:02 10° NE
